Change the Weather History Date:

Sunday, November 23, 2014

  Actual Average Record
Temperature  
Mean Temperature 47 °F 38 °F  
Max Temperature 56 °F 48 °F 71 °F (1914)
Min Temperature 37 °F 27 °F -5 °F (1898)
Degree Days  
Heating Degree Days 18 27  
Month to date heating degree days 637 494  
Since 1 July heating degree days 968 885  
Cooling Degree Days 0 0  
Month to date cooling degree days 0 0  
Year to date cooling degree days 1368 1348  
Moisture  
Dew Point 41 °F    
Average Humidity 77    
Maximum Humidity 100    
Minimum Humidity 54    
Precipitation  
Precipitation 0.03 in 0.03 in 1.39 in (1905)
Month to date precipitation 0.11 0.88  
Year to date precipitation 26.46 26.81  
Snow  
Snow 0.00 in 0.10 in 1.10 in (2007)
Month to date snowfall 1.1 1.6  
Year to date snowfall 18.0 15.5  
Since 1 July snowfall 1.1 1.8  
Snow Depth 0.00 in    
Sea Level Pressure  
Sea Level Pressure 29.53 in    
Wind  
Wind Speed 13 mph (WNW)    
Max Wind Speed 31 mph    
Max Gust Speed 42 mph    
Visibility 10 miles    
Events Rain    
T = Trace of Precipitation, MM = Missing Value Source: NWS Daily Summary

Daily Weather History Graph

Daily Weather History Graph

Search for Another Location

Airport or City:

Trip Planner

Search our weather history database for the weather conditions in past years. The results will help you decide how hot, cold, wet, or windy it might be!

Date:

Astronomy

Nov. 23, 2014 Rise Set
Actual Time 7:23 AM CST 5:10 PM CST
Civil Twilight 6:54 AM CST 5:39 PM CST
Nautical Twilight 6:21 AM CST 6:12 PM CST
Astronomical Twilight 5:49 AM CST 6:44 PM CST
Moon 8:20 AM CST (11/23) 6:34 PM CST (11/23)
Length of Visible Light 10h 45m
Length of Day
9h 46m
New Moon, 2% of the Moon is Illuminated
Nov 23
New Moon
Nov 29
First Quarter
Dec 6
Full
Dec 14
Last Quarter
Dec 21
New

Hourly Weather History & Observations

Time (CST) Temp. Windchill Dew Point Humidity Pressure Visibility Wind Dir Wind Speed Gust Speed Precip Events Conditions
12:07 AM 55.9 °F - 52.0 °F 87% 29.54 in 10.0 mi South 21.9 mph 31.1 mph N/A   Overcast
12:51 AM 55.4 °F - 51.8 °F 88% 29.52 in 10.0 mi South 21.9 mph 31.1 mph N/A   Overcast
12:55 AM 55.0 °F - 51.1 °F 86% 29.51 in 10.0 mi SSW 18.4 mph 31.1 mph N/A   Overcast
1:55 AM 53.1 °F - 50.0 °F 89% 29.49 in 10.0 mi Calm Calm - N/A   Mostly Cloudy
2:55 AM 54.0 °F - 50.0 °F 86% 29.47 in 10.0 mi SSE 6.9 mph - N/A   Overcast
3:55 AM 53.1 °F - 51.1 °F 93% 29.46 in 10.0 mi South 4.6 mph - N/A   Overcast
4:52 AM 53.6 °F - 51.8 °F 94% 29.45 in 10.0 mi South 4.6 mph - N/A   Overcast
4:55 AM 52.0 °F - 51.1 °F 97% 29.44 in 10.0 mi South 6.9 mph - N/A   Overcast
5:55 AM 52.0 °F - 50.0 °F 93% 29.46 in 10.0 mi SSE 8.1 mph - N/A   Overcast
6:04 AM 51.8 °F - 51.8 °F 100% 29.47 in 10.0 mi SSE 10.4 mph - N/A   Overcast
6:55 AM 51.1 °F - 50.0 °F 96% 29.48 in 10.0 mi South 11.5 mph - N/A   Overcast
7:55 AM 51.1 °F - 50.0 °F 96% 29.49 in 10.0 mi South 10.4 mph - N/A   Overcast
8:55 AM 53.1 °F - 51.1 °F 93% 29.46 in 10.0 mi WSW 4.6 mph - N/A   Partly Cloudy
9:29 AM 53.1 °F - 50.0 °F 89% 29.48 in 10.0 mi West 5.8 mph - N/A   Overcast
9:55 AM 48.0 °F - 41.0 °F 77% 29.50 in 10.0 mi NNW 20.7 mph 31.1 mph 0.00 in Rain Light Rain
10:03 AM 48.0 °F - 42.1 °F 80% 29.51 in 10.0 mi North 16.1 mph 28.8 mph 0.00 in Rain Light Rain
10:55 AM 48.0 °F - 39.0 °F 71% 29.51 in 10.0 mi North 21.9 mph 35.7 mph 0.00 in   Overcast
11:09 AM 48.0 °F - 37.9 °F 68% 29.52 in 10.0 mi North 25.3 mph 39.1 mph N/A   Overcast
11:40 AM 46.9 °F - 37.9 °F 71% 29.52 in 10.0 mi North 25.3 mph 38.0 mph N/A   Overcast
11:55 AM 46.9 °F - 37.9 °F 71% 29.52 in 10.0 mi North 24.2 mph 36.8 mph N/A   Overcast
12:55 PM 45.0 °F 36.6 °F 36.0 °F 71% 29.54 in 10.0 mi NNW 21.9 mph 33.4 mph N/A   Overcast
1:55 PM 41.0 °F 31.6 °F 37.9 °F 89% 29.53 in 5.0 mi NNW 20.7 mph 28.8 mph 0.01 in Rain Light Rain
2:23 PM 39.9 °F 30.8 °F 37.9 °F 93% 29.53 in 10.0 mi North 18.4 mph - 0.02 in Rain Light Rain
2:55 PM 42.1 °F 34.5 °F 37.9 °F 85% 29.53 in 10.0 mi NNW 15.0 mph 25.3 mph 0.02 in   Overcast
3:55 PM 43.0 °F 33.8 °F 35.1 °F 74% 29.54 in 10.0 mi North 23.0 mph 31.1 mph N/A   Overcast
4:55 PM 43.0 °F 37.7 °F 35.1 °F 74% 29.57 in 10.0 mi North 9.2 mph - N/A   Mostly Cloudy
5:55 PM 41.0 °F 35.8 °F 35.1 °F 79% 29.60 in 10.0 mi NW 8.1 mph - N/A   Clear
6:55 PM 41.0 °F 34.7 °F 34.0 °F 76% 29.63 in 10.0 mi NNW 10.4 mph - N/A   Clear
7:55 PM 39.9 °F 33.9 °F 32.0 °F 73% 29.64 in 10.0 mi NW 9.2 mph - N/A   Clear
8:55 PM 37.0 °F 30.4 °F 30.9 °F 79% 29.65 in 10.0 mi WNW 9.2 mph - N/A   Clear
9:55 PM 39.0 °F 30.6 °F 27.0 °F 62% 29.65 in 10.0 mi NW 15.0 mph - N/A   Clear
10:55 PM 39.0 °F 30.6 °F 25.0 °F 57% 29.65 in 10.0 mi NW 15.0 mph 25.3 mph N/A   Clear
11:55 PM 37.9 °F 27.9 °F 25.0 °F 60% 29.65 in 10.0 mi NW 19.6 mph 28.8 mph N/A   Clear